When you browse on this site, cookies collect data to enhance your experience and personalize the content and advertising you see.
Visit our Privacy Policy to learn more. By continuing to use the site, you agree to this use of cookies and data.
  • In United Kingdom
  • List of Countries
  • For 7 days
  • Water Temperature
  • Satellite Maps
  • Weather Map
  • Weather Widgets
  • user-avatar
    Login

    Hourly Weather Sacapa

    Today, 20 February, Wednesday

    Time Temperature Precipitation Wind Pressure Humidity
    00:00 +20°C° 0 mm 0 mps 696 mmHg 93%
    01:00 +20°C° 0 mm 0 mps 696 mmHg 93%
    02:00 +19°C° 0 mm 0 mps 695 mmHg 93%
    03:00 +19°C° 0 mm 0 mps 695 mmHg 93%
    04:00 +19°C° 0 mm 0 mps 695 mmHg 93%
    05:00 +19°C° 0 mm 0 mps 695 mmHg 93%
    06:00 +18°C° 0 mm 0 mps 695 mmHg 93%
    07:00 +23°C° 0 mm 1 mps 696 mmHg 81%
    08:00 +26°C° 0 mm 1 mps 696 mmHg 68%
    09:00 +28°C° 0 mm 1 mps 697 mmHg 56%
    10:00 +31°C° 0 mm 1 mps 697 mmHg 48%
    11:00 +33°C° 0 mm 1 mps 697 mmHg 40%
    12:00 +36°C° 0 mm 1 mps 697 mmHg 32%
    13:00 +35°C° 0 mm 1 mps 696 mmHg 34%
    14:00 +34°C° 0 mm 1 mps 696 mmHg 35%
    15:00 +34°C° 0 mm 1 mps 695 mmHg 36%
    16:00 +31°C° 0.2 mm 1 mps 695 mmHg 46%
    17:00 +29°C° 0.2 mm 1 mps 694 mmHg 56%
    18:00 +27°C° 0.2 mm 1 mps 694 mmHg 66%
    19:00 +25°C° 0.4 mm 1 mps 695 mmHg 73%
    20:00 +24°C° 0.4 mm 1 mps 695 mmHg 80%
    21:00 +21°C° 0.4 mm 0 mps 696 mmHg 87%
    22:00 +20°C° 0.1 mm 0 mps 696 mmHg 89%
    23:00 +20°C° 0.1 mm 0 mps 696 mmHg 91%

    Tomorrow, 21 February, Thursday

    Time Temperature Precipitation Wind Pressure Humidity
    00:00 +19°C° 0.1 mm 0 mps 696 mmHg 93%
    01:00 +19°C° 0 mm 0 mps 695 mmHg 93%
    02:00 +19°C° 0 mm 0 mps 695 mmHg 93%
    03:00 +19°C° 0 mm 0 mps 695 mmHg 93%
    04:00 +19°C° 0 mm 0 mps 695 mmHg 93%
    05:00 +19°C° 0 mm 0 mps 695 mmHg 93%
    06:00 +21°C° 0 mm 1 mps 695 mmHg 93%
    07:00 +23°C° 0 mm 1 mps 696 mmHg 81%
    08:00 +26°C° 0 mm 1 mps 697 mmHg 69%
    09:00 +28°C° 0 mm 1 mps 698 mmHg 58%
    10:00 +31°C° 0 mm 1 mps 698 mmHg 50%
    11:00 +33°C° 0 mm 1 mps 698 mmHg 43%
    12:00 +34°C° 0 mm 0 mps 698 mmHg 35%
    13:00 +35°C° 0 mm 1 mps 697 mmHg 37%
    14:00 +34°C° 0 mm 1 mps 696 mmHg 39%
    15:00 +32°C° 0 mm 1 mps 695 mmHg 41%
    16:00 +30°C° 0.1 mm 1 mps 695 mmHg 48%
    17:00 +29°C° 0.1 mm 1 mps 695 mmHg 56%
    18:00 +27°C° 0.1 mm 1 mps 695 mmHg 63%
    19:00 +26°C° 0.4 mm 1 mps 695 mmHg 70%
    20:00 +24°C° 0.4 mm 1 mps 696 mmHg 77%
    21:00 +23°C° 0.4 mm 1 mps 696 mmHg 84%
    22:00 +23°C° 0 mm 1 mps 696 mmHg 87%
    23:00 +22°C° 0 mm 1 mps 696 mmHg 91%

    Day after tomorrow, 22 February, Friday

    Time Temperature Precipitation Wind Pressure Humidity
    00:00 +22°C° 0 mm 1 mps 696 mmHg 94%
    01:00 +21°C° 0 mm 1 mps 696 mmHg 94%
    02:00 +19°C° 0 mm 0 mps 696 mmHg 93%
    03:00 +19°C° 0 mm 0 mps 695 mmHg 93%
    04:00 +19°C° 0 mm 0 mps 696 mmHg 92%
    05:00 +18°C° 0 mm 0 mps 696 mmHg 92%
    06:00 +18°C° 0 mm 0 mps 696 mmHg 92%
    07:00 +21°C° 0 mm 0 mps 697 mmHg 80%
    08:00 +24°C° 0 mm 0 mps 698 mmHg 68%
    09:00 +27°C° 0 mm 0 mps 699 mmHg 57%
    10:00 +29°C° 0 mm 0 mps 699 mmHg 49%
    11:00 +33°C° 0 mm 1 mps 699 mmHg 42%
    12:00 +35°C° 0 mm 1 mps 699 mmHg 34%
    13:00 +34°C° 0 mm 1 mps 698 mmHg 35%
    14:00 +35°C° 0 mm 2 mps 697 mmHg 36%
    15:00 +34°C° 0 mm 2 mps 696 mmHg 37%
    16:00 +31°C° 0.2 mm 2 mps 696 mmHg 46%
    17:00 +29°C° 0.2 mm 2 mps 696 mmHg 55%
    18:00 +27°C° 0.2 mm 2 mps 696 mmHg 65%
    19:00 +25°C° 0.4 mm 1 mps 696 mmHg 73%
    20:00 +24°C° 0.4 mm 1 mps 697 mmHg 81%
    21:00 +23°C° 0.4 mm 1 mps 697 mmHg 89%
    22:00 +22°C° 0 mm 1 mps 697 mmHg 91%
    23:00 +22°C° 0 mm 1 mps 697 mmHg 92%

    23 February, Saturday

    Time Temperature Precipitation Wind Pressure Humidity
    00:00 +20°C° 0 mm 0 mps 697 mmHg 93%
    01:00 +20°C° 0 mm 0 mps 697 mmHg 93%
    02:00 +20°C° 0 mm 0 mps 696 mmHg 93%
    03:00 +20°C° 0 mm 0 mps 696 mmHg 92%
    04:00 +20°C° 0 mm 0 mps 696 mmHg 93%
    05:00 +20°C° 0 mm 0 mps 697 mmHg 93%
    06:00 +19°C° 0 mm 0 mps 697 mmHg 94%
    07:00 +22°C° 0 mm 0 mps 698 mmHg 83%
    08:00 +24°C° 0 mm 0 mps 699 mmHg 73%
    09:00 +26°C° 0 mm 0 mps 700 mmHg 62%
    10:00 +28°C° 0.3 mm 0 mps 699 mmHg 57%
    11:00 +32°C° 0.3 mm 1 mps 699 mmHg 52%
    12:00 +33°C° 0.3 mm 1 mps 699 mmHg 47%
    13:00 +32°C° 1.1 mm 1 mps 698 mmHg 49%
    14:00 +32°C° 1.1 mm 2 mps 697 mmHg 52%
    15:00 +31°C° 1.1 mm 2 mps 696 mmHg 54%
    16:00 +29°C° 1.3 mm 2 mps 696 mmHg 61%
    17:00 +28°C° 1.3 mm 1 mps 696 mmHg 68%
    18:00 +26°C° 1.3 mm 1 mps 696 mmHg 75%
    19:00 +25°C° 0.6 mm 1 mps 697 mmHg 80%
    20:00 +24°C° 0.6 mm 1 mps 697 mmHg 85%
    21:00 +23°C° 0.6 mm 1 mps 698 mmHg 90%
    22:00 +22°C° 0 mm 1 mps 698 mmHg 92%
    23:00 +22°C° 0 mm 1 mps 698 mmHg 93%

    24 February, Sunday

    Time Temperature Precipitation Wind Pressure Humidity
    00:00 +22°C° 0 mm 1 mps 698 mmHg 94%
    01:00 +22°C° 0 mm 1 mps 697 mmHg 94%
    02:00 +22°C° 0 mm 1 mps 697 mmHg 94%
    03:00 +20°C° 0 mm 0 mps 697 mmHg 93%
    04:00 +19°C° 0 mm 0 mps 697 mmHg 93%
    05:00 +19°C° 0 mm 0 mps 697 mmHg 92%
    06:00 +19°C° 0 mm 0 mps 697 mmHg 92%
    07:00 +23°C° 0 mm 1 mps 698 mmHg 85%
    08:00 +24°C° 0 mm 1 mps 698 mmHg 78%
    09:00 +26°C° 0 mm 1 mps 699 mmHg 71%
    10:00 +27°C° 0 mm 1 mps 699 mmHg 65%
    11:00 +29°C° 0 mm 2 mps 698 mmHg 58%
    12:00 +31°C° 0 mm 2 mps 698 mmHg 52%
    13:00 +31°C° 0.1 mm 2 mps 697 mmHg 51%
    14:00 +31°C° 0.1 mm 2 mps 697 mmHg 50%
    15:00 +31°C° 0.1 mm 3 mps 696 mmHg 49%
    16:00 +29°C° 0.1 mm 2 mps 696 mmHg 56%
    17:00 +28°C° 0.1 mm 2 mps 696 mmHg 64%
    18:00 +26°C° 0.1 mm 2 mps 696 mmHg 72%
    19:00 +25°C° 0.1 mm 1 mps 696 mmHg 79%
    20:00 +23°C° 0.1 mm 1 mps 697 mmHg 86%
    21:00 +22°C° 0.1 mm 1 mps 697 mmHg 93%
    22:00 +22°C° 0.1 mm 1 mps 697 mmHg 93%
    23:00 +22°C° 0.1 mm 1 mps 697 mmHg 93%

    25 February, Monday

    Time Temperature Precipitation Wind Pressure Humidity
    00:00 +22°C° 0.1 mm 1 mps 697 mmHg 92%
    01:00 +21°C° 0 mm 1 mps 697 mmHg 93%
    02:00 +21°C° 0 mm 1 mps 696 mmHg 93%
    03:00 +20°C° 0 mm 1 mps 696 mmHg 93%
    04:00 +20°C° 0 mm 1 mps 696 mmHg 92%
    05:00 +20°C° 0 mm 1 mps 697 mmHg 91%
    06:00 +20°C° 0 mm 1 mps 697 mmHg 90%
    07:00 +22°C° 0 mm 1 mps 698 mmHg 82%
    08:00 +24°C° 0 mm 1 mps 698 mmHg 73%
    09:00 +26°C° 0 mm 1 mps 699 mmHg 65%
    10:00 +27°C° 0 mm 2 mps 699 mmHg 58%
    11:00 +29°C° 0 mm 2 mps 699 mmHg 51%
    12:00 +31°C° 0 mm 2 mps 698 mmHg 44%
    13:00 +30°C° 0.1 mm 3 mps 698 mmHg 46%
    14:00 +30°C° 0.1 mm 3 mps 697 mmHg 47%
    15:00 +30°C° 0.1 mm 3 mps 697 mmHg 49%
    16:00 +28°C° 0.2 mm 3 mps 697 mmHg 58%
    17:00 +26°C° 0.2 mm 2 mps 697 mmHg 67%
    18:00 +24°C° 0.2 mm 2 mps 697 mmHg 77%
    19:00 +23°C° 0.1 mm 2 mps 697 mmHg 81%
    20:00 +23°C° 0.1 mm 1 mps 697 mmHg 85%
    21:00 +22°C° 0.1 mm 1 mps 698 mmHg 90%
    22:00 +22°C° 0.1 mm 1 mps 698 mmHg 90%
    23:00 +22°C° 0.1 mm 1 mps 698 mmHg 91%
    Show more